星链-33974 (STARLINK-33974)

导读 | 豆包AI

STARLINK-33974是美国SpaceX星链星座中的一颗卫星,于2025年5月13日发射升空。星链计划旨在构建全球卫星互联网星座,为全球各地提供高速互联网接入服务。该卫星继承星链平台设计,承担低轨卫星通信任务,服务全球偏远地区网络覆盖,助力天地一体化网络建设。

基本信息
目录编号:
63954
目录名称:
STARLINK-33974
国际标识:
2025-099C
轨道中心:
EARTH
卫星名称:
星链-33974
卫星全名:
星链-33974 (STARLINK-33974)
卫星状态:
在轨 (已飞行351 天)
发射日期:
2025-05-13 UTC
国别 :
美国 (US)
星等 :
--
轨道信息
数据来源 国际轨道数据
星历时间: 2026-04-28T17:29:32+0800
1天前
查看轨道信息
半长轴: 6861.162km
偏心率: 0.0000549
轨道倾角: 42.996°
近地点辐角 259.272°
升交点赤经 255.900°
平近点角 100.806°
近地点: 482.648km
远地点: 483.402km
周期: 94.266分钟
每日圈数: 15.275881
详细信息
固有亮度:
5
最大亮度:
2.5
卫星平台:
Starlink V1.0
覆盖范围:
全球
运营商:
太空探索技术公司
运营商所在国:
美国
制造商(研发单位):
太空探索技术公司
制造商所在国:
美国
使用方式:
暂无
卫星简介
Starlink 计划是 SpaceX 推出的全球卫星互联网项目,通过发射低轨道卫星,为全球尤其是偏远地区提供高速、低延迟的互联网服务。自 2019 年起,Starlink 已部署数千颗卫星,旨在缩小全球数字鸿沟,推动互联网普及。该项目还为军事、航空等行业提供通信支持,带来广泛经济效益。
2D轨道图
3D轨道图
轨道高度分析图
轨道倾角分析图
轨道综合分析图
查看轨道综合分析图